Theta_e
319 318 318 317 317 317 316 316 315 313 311 309 307 304 303 303 303 302 302 301 301 301 301 301 301 301 301 301 302 301 301 301 302 302 303 303 305 305 307 311 314 317 319 320 321 322 322 322 322 322 322 322 323 322 321 322 322 322 322 321 320 321 320 320 320 321 321 322 322 323 322 323 323 323 324 325 326 327 328 328 329 329 330 331 331
318 316 315 315 314 314 314 314 312 310 308 307 304 303 302 302 303 303 302 301 300 300 300 300 300 300 301 301 301 300 301 301 302 301 302 303 304 305 304 309 313 316 317 318 320 320 321 320 321 321 321 322 321 321 321 321 322 321 321 320 319 319 318 319 319 320 320 321 321 321 321 321 321 322 323 323 324 325 325 325 326 327 327 328 328
317 315 313 313 312 312 312 311 310 308 307 305 303 303 303 302 302 301 300 300 300 300 299 299 300 299 300 301 300 300 300 301 301 301 301 302 303 306 307 306 310 314 316 317 318 319 319 319 319 320 321 320 320 320 319 320 320 319 319 319 318 318 318 318 319 320 320 320 320 319 320 320 320 321 322 323 322 323 323 323 324 324 325 325 326
315 313 312 311 310 310 310 309 308 307 305 304 302 303 303 304 304 302 302 301 299 299 300 298 299 299 300 300 300 300 300 300 300 301 301 302 303 304 307 309 307 308 311 315 317 317 318 318 318 318 319 319 319 319 319 319 319 318 317 318 317 317 317 317 317 318 319 319 318 318 319 319 319 320 321 321 321 321 321 322 322 323 323 324 324
313 312 310 310 309 308 307 307 307 305 304 304 303 303 302 301 301 301 300 300 299 299 300 299 299 298 299 299 299 300 300 300 300 300 301 301 302 302 304 307 309 305 305 307 312 315 316 317 317 317 318 317 318 318 318 317 317 317 317 316 316 317 317 316 316 317 318 318 318 318 318 318 319 319 320 320 320 320 320 321 321 322 322 322 323
312 311 309 308 307 306 306 305 305 304 303 303 301 300 299 300 299 298 298 298 298 297 296 298 298 298 298 299 299 299 299 299 299 300 300 300 301 302 301 302 304 306 304 302 304 308 313 315 315 316 316 316 316 317 317 316 317 316 316 316 316 317 316 316 316 317 318 318 317 317 317 318 318 319 318 319 319 319 319 319 320 321 321 321 321
310 309 307 307 305 305 304 303 304 303 301 301 300 300 301 300 298 297 297 297 298 298 298 297 297 298 298 298 298 299 299 299 299 299 299 300 300 301 300 300 300 301 302 302 300 300 305 310 312 313 313 314 314 315 316 316 316 316 316 316 316 315 315 315 316 317 317 317 316 316 316 316 317 318 318 317 317 318 318 318 318 318 319 319 320
309 308 306 305 304 303 303 302 303 301 301 300 301 300 300 300 299 300 296 297 297 296 298 297 298 298 298 298 298 298 298 298 298 298 299 299 299 299 299 299 299 298 298 299 299 298 299 303 307 309 310 310 312 314 314 315 315 315 316 316 315 315 315 315 316 316 316 315 315 315 315 316 316 316 316 316 316 316 317 317 317 318 318 318 318
308 307 306 304 303 303 302 302 301 300 300 300 299 300 300 300 299 299 298 296 296 296 297 297 297 297 297 298 298 297 297 297 297 298 299 298 298 298 297 297 296 297 297 297 297 297 296 298 301 303 305 308 310 312 313 314 315 315 315 314 314 315 314 314 315 315 314 314 314 314 314 314 314 314 315 315 315 315 315 316 317 317 317 318 318
307 306 305 304 303 302 302 301 300 300 300 299 299 300 300 299 297 298 298 296 295 296 295 296 297 297 296 297 297 297 297 297 297 296 297 297 297 297 296 296 297 297 296 297 297 297 297 296 296 298 299 304 308 311 311 312 312 313 314 314 313 314 313 313 312 312 312 312 313 313 313 313 313 313 314 314 313 314 314 314 315 315 315 316 316
306 305 304 303 302 302 301 300 300 299 299 299 299 299 299 299 298 296 297 297 296 296 296 297 297 296 296 295 296 296 297 296 296 297 296 297 296 296 296 295 296 296 296 296 295 296 296 297 297 298 298 299 304 308 310 311 311 312 313 313 313 314 313 312 311 311 311 311 311 311 312 312 312 312 312 312 312 313 313 313 314 314 313 314 315
305 304 303 302 301 301 300 300 299 299 298 298 298 297 298 298 297 296 295 296 298 298 297 295 295 295 294 294 295 295 295 295 296 296 296 296 295 294 294 295 295 295 295 295 295 295 295 296 296 296 296 297 300 303 305 307 309 311 311 312 312 312 312 311 310 310 310 310 310 310 310 310 310 310 311 311 311 312 312 312 313 313 313 313 313
304 303 302 301 301 300 300 299 299 298 298 298 299 298 299 298 297 296 295 293 294 297 297 297 294 293 293 293 293 294 294 294 293 294 294 294 294 293 293 294 294 294 294 294 294 295 295 295 295 295 296 297 299 299 300 301 304 308 310 310 312 311 311 310 309 309 308 308 308 308 308 309 309 310 310 310 311 311 312 312 313 313 313 314 314
303 303 302 301 300 299 299 298 297 297 298 299 299 298 298 297 297 295 296 294 293 296 296 295 293 292 290 290 291 292 292 292 292 292 294 294 294 294 294 293 293 293 293 293 293 294 294 294 295 295 296 297 298 299 300 298 297 300 304 307 309 309 309 308 307 307 307 307 307 308 308 308 309 310 310 310 310 311 311 312 312 312 313 313 314
303 302 301 301 300 299 298 297 297 297 297 298 298 297 297 297 296 294 293 295 294 296 296 297 293 295 295 292 289 289 290 290 292 291 292 293 293 293 293 293 292 293 293 293 293 293 294 294 294 295 295 296 297 297 295 294 294 293 296 298 302 306 307 307 307 307 306 305 306 306 306 307 308 308 308 308 309 309 310 310 310 310 311 311 312
303 302 301 301 300 299 298 297 297 298 297 296 297 297 297 296 295 295 295 293 293 292 296 297 297 295 290 293 292 292 288 288 289 290 292 292 292 292 292 292 292 293 293 292 292 292 293 294 293 294 295 296 297 297 297 295 294 292 292 293 296 301 303 304 305 305 305 305 305 306 305 305 306 307 307 307 307 308 308 308 308 308 309 310 310
303 302 300 300 300 299 298 297 297 297 297 296 296 296 297 297 296 295 294 293 292 292 293 296 296 299 295 291 289 289 292 293 290 290 290 290 291 291 292 292 292 292 292 291 292 292 292 293 293 294 294 295 296 296 296 296 294 292 292 291 294 296 299 302 303 304 303 303 304 304 304 305 305 305 305 305 306 306 307 307 307 307 308 309 309
302 302 301 300 300 300 299 298 297 296 296 296 297 297 297 296 296 296 295 295 294 292 291 294 295 297 296 297 298 294 293 293 291 287 290 291 292 291 291 291 292 291 292 291 291 291 292 292 293 293 294 295 295 295 294 293 292 291 291 292 294 295 296 298 301 302 302 303 303 304 304 304 304 304 304 304 305 305 306 306 307 306 308 308 309
301 301 301 300 300 300 299 298 297 297 296 296 296 296 296 296 296 295 295 296 296 292 292 291 293 292 294 295 296 291 298 292 290 293 287 289 291 290 290 291 291 291 291 291 291 291 291 292 292 293 293 294 294 294 293 292 291 290 289 291 293 294 295 295 296 298 300 300 301 302 302 303 303 303 303 303 304 304 305 305 306 306 306 307 307
300 300 300 300 299 299 299 299 297 297 295 295 295 296 296 297 296 296 296 296 297 294 293 293 290 291 293 292 291 293 296 296 298 295 294 289 288 290 291 290 290 291 291 290 290 291 291 291 292 292 292 293 294 293 293 292 291 290 289 290 291 293 294 294 294 295 296 297 298 299 301 301 301 301 301 302 303 303 304 305 305 305 305 306 306
299 299 299 299 299 299 299 298 298 297 295 296 296 296 296 295 295 294 295 295 296 296 295 293 292 293 291 291 293 293 293 295 294 296 294 293 291 288 288 289 289 290 290 291 290 291 291 291 291 292 292 293 293 293 293 292 291 290 288 289 290 291 293 293 293 293 294 294 295 296 298 299 299 299 300 301 302 303 304 304 304 304 305 305 306
298 299 299 299 299 298 298 298 298 297 295 295 296 296 296 296 295 295 295 295 295 296 297 295 294 296 293 293 291 291 292 291 292 293 292 295 293 290 290 287 285 288 290 289 289 290 290 290 290 291 292 293 292 292 292 291 290 289 287 287 288 289 290 291 292 293 293 293 293 294 295 296 297 297 299 300 301 302 302 302 303 303 304 304 305
297 297 298 298 298 298 298 298 298 297 295 295 295 295 295 295 295 295 295 294 294 294 295 297 295 297 294 294 292 292 292 291 291 292 292 290 290 292 291 290 289 288 288 290 289 290 290 290 290 290 292 292 292 291 291 289 288 285 284 285 287 288 289 290 291 291 292 292 292 292 293 293 294 295 297 299 300 301 302 302 302 302 303 303 304
297 296 297 297 297 297 297 297 296 296 295 295 295 295 295 295 295 294 294 295 295 294 294 295 295 295 295 295 294 295 295 295 295 294 293 293 292 291 290 290 290 290 289 288 290 289 289 289 290 290 291 291 290 290 288 289 287 283 286 284 285 286 288 289 289 290 291 291 291 292 292 292 293 293 295 297 298 299 300 301 301 301 302 302 302
295 295 296 297 296 296 296 296 296 296 296 295 295 295 294 294 294 294 294 294 293 294 293 294 294 293 294 295 295 296 296 297 298 295 295 296 294 292 290 289 287 287 287 287 287 288 289 289 289 290 290 290 290 289 289 289 288 284 283 284 283 284 285 286 287 289 289 289 290 290 291 291 291 292 294 295 296 298 299 299 300 300 300 301 300
296 295 296 296 296 296 296 296 296 296 295 295 295 295 295 293 294 293 293 294 294 294 293 295 294 295 295 294 293 295 295 297 296 296 295 294 292 292 289 287 289 288 287 286 288 285 287 289 290 289 290 290 289 289 288 287 287 283 281 283 284 283 284 285 286 287 289 289 289 289 290 290 290 291 292 294 295 295 297 298 299 299 299 299 299
297 297 297 296 296 296 296 296 296 296 295 295 295 295 294 294 293 294 293 293 293 293 292 294 293 294 294 293 293 294 294 294 295 295 295 294 293 292 289 285 284 287 285 286 286 286 287 287 289 288 289 289 289 288 288 287 285 282 281 285 285 282 282 284 285 287 288 288 288 288 288 289 289 291 291 292 293 294 295 296 297 297 297 297 296
298 297 297 296 295 295 295 295 295 295 295 295 294 294 294 293 292 292 292 294 292 292 292 293 293 293 293 294 293 293 294 293 294 294 294 294 294 294 291 290 286 283 285 285 285 285 289 286 287 288 289 288 288 288 286 285 286 282 281 285 285 284 282 283 285 286 287 287 287 287 288 288 289 290 290 291 291 292 292 293 293 293 293 293 293
298 297 297 296 296 295 295 294 295 295 294 294 294 293 293 292 291 291 291 292 291 292 291 291 292 292 292 293 292 292 292 292 292 293 294 294 295 294 293 291 291 288 284 283 285 285 286 287 285 286 288 288 287 287 285 286 284 283 285 285 284 284 283 282 284 286 286 286 287 287 287 288 289 289 289 290 290 291 291 291 291 291 292 292 293
297 297 296 296 295 293 294 294 294 294 294 293 293 292 292 291 291 291 291 292 291 291 291 291 291 291 291 292 291 291 292 291 291 292 292 292 292 293 293 292 292 290 289 285 285 287 287 287 287 286 287 286 287 286 286 286 283 282 284 284 284 284 282 282 283 284 285 285 286 286 287 288 288 289 289 289 289 290 290 291 291 291 291 292 293
295 295 295 294 294 294 293 293 293 293 293 293 292 292 291 291 291 290 291 291 290 290 291 290 291 291 290 290 290 290 291 290 290 291 291 291 291 291 291 292 292 291 290 289 286 288 289 285 286 288 286 286 286 285 285 285 283 282 283 284 284 282 281 282 282 283 284 284 285 286 287 287 288 288 289 289 289 289 290 290 290 290 290 291 292
294 294 294 293 293 293 293 292 292 292 292 292 292 291 291 290 290 289 290 291 290 289 290 290 290 290 289 288 289 289 290 290 289 290 290 290 290 291 290 290 290 290 290 289 287 286 287 287 286 286 286 285 285 284 284 284 283 280 283 283 283 281 282 283 282 282 283 283 284 286 287 287 288 288 288 288 288 289 289 289 289 289 290 290 292
294 293 293 293 293 293 292 292 292 291 291 291 291 291 290 290 290 289 289 289 288 288 289 289 289 289 288 287 288 289 290 288 289 289 289 289 289 289 290 289 289 289 288 288 286 285 284 286 286 284 285 285 283 284 283 283 283 282 282 283 283 282 283 283 283 282 282 283 284 285 286 287 287 287 287 288 288 288 288 289 289 289 290 291 291
293 293 293 293 293 292 292 291 291 291 291 291 290 290 289 289 289 289 288 288 288 287 288 287 287 287 287 287 287 287 288 287 288 288 288 288 287 287 288 287 287 287 288 287 286 286 283 283 284 284 283 284 282 284 283 283 282 283 282 282 282 282 282 283 283 284 282 282 283 285 286 286 286 287 287 287 287 287 288 289 289 289 290 290 290
293 293 292 292 292 292 291 291 291 290 290 289 289 289 288 288 288 288 288 287 287 286 286 286 286 286 285 286 286 287 287 286 287 287 287 287 287 286 286 286 286 287 287 287 286 284 283 282 283 282 282 282 282 282 283 283 282 282 281 282 282 282 282 282 283 283 283 283 283 285 285 285 285 285 286 286 287 287 287 288 288 288 288 288 289
291 292 292 291 291 291 290 290 290 290 289 289 288 288 287 287 287 287 287 287 286 286 286 286 286 286 285 284 285 285 285 284 285 286 286 286 286 285 285 285 285 286 285 286 287 285 284 281 281 281 282 280 281 282 282 281 281 281 281 282 282 282 282 282 282 283 283 283 283 283 284 284 284 285 285 285 286 286 287 287 287 287 287 287 287
290 290 290 290 290 290 290 290 289 289 288 288 287 287 287 287 287 287 287 287 286 286 286 286 286 285 284 284 284 285 284 283 285 284 284 284 284 284 284 284 284 284 284 284 284 285 284 282 280 281 281 280 281 281 281 279 280 280 281 281 281 281 282 283 283 283 282 282 282 282 282 283 283 284 284 285 285 285 286 286 286 286 286 286 285
288 288 288 289 289 289 289 289 289 289 289 288 287 286 285 285 286 286 286 286 286 285 286 286 286 286 285 285 285 285 284 284 284 284 284 283 283 283 284 284 284 284 283 283 283 283 284 282 280 279 280 279 279 279 280 280 280 279 279 280 281 281 281 281 282 282 283 283 283 283 282 283 283 283 283 284 284 285 285 285 285 285 285 284 284
288 288 288 288 288 288 288 288 288 289 289 288 287 287 286 286 285 285 285 285 285 285 285 285 285 286 285 285 285 285 284 284 284 284 283 283 283 283 284 284 283 283 282 282 282 282 282 282 280 279 278 279 279 278 279 280 280 281 280 280 279 281 281 281 281 282 282 282 282 282 282 282 282 282 282 283 283 283 283 283 283 283 283 283 283
288 288 288 288 288 287 288 288 288 288 288 288 287 287 287 286 286 286 286 285 285 284 284 284 284 284 285 285 285 285 285 285 285 284 284 283 282 282 283 283 283 282 281 281 281 281 281 280 279 279 279 278 278 280 280 279 278 279 280 280 280 280 280 282 282 281 282 282 282 282 282 282 282 282 281 281 281 281 282 282 281 281 281 282 282
288 288 288 288 288 288 287 287 287 287 287 287 288 287 286 286 286 285 285 285 285 284 284 284 284 284 284 285 285 285 285 284 285 284 284 284 283 282 282 282 282 281 281 280 280 280 280 279 278 278 278 278 278 278 277 277 277 278 280 280 279 281 281 281 281 282 281 281 281 282 282 282 280 280 280 280 281 280 281 280 281 281 281 282 283
287 288 288 288 288 287 287 288 287 287 286 287 287 288 288 286 285 285 285 285 285 285 284 284 283 284 284 284 285 284 284 284 284 284 285 285 285 284 283 282 281 280 280 279 279 279 279 278 277 277 276 277 277 277 277 279 281 281 280 279 278 280 280 280 281 281 282 281 280 280 280 281 279 279 279 279 280 280 281 281 281 281 281 282 283
286 286 286 286 287 287 287 287 287 287 287 286 287 289 289 289 287 286 285 285 285 285 284 284 283 283 283 283 283 283 284 283 284 285 285 285 285 285 283 283 283 282 280 279 279 279 278 277 278 277 277 277 277 278 278 280 280 279 279 279 279 279 278 279 278 280 282 281 279 277 278 280 278 277 278 278 279 280 280 280 281 281 281 282 283
284 285 285 285 286 286 286 287 286 287 287 287 288 289 289 289 289 286 285 285 285 285 284 284 284 284 283 283 283 283 283 283 283 283 284 284 285 284 284 283 283 284 284 281 279 278 278 277 277 278 278 277 277 278 278 279 279 279 279 279 279 278 278 277 279 278 280 281 278 277 276 278 278 277 276 278 279 279 280 281 281 281 282 282 282
284 283 284 285 285 285 286 285 286 286 287 288 288 289 289 289 290 288 285 285 285 285 284 284 283 283 283 283 282 282 283 283 283 283 282 283 284 284 284 283 283 284 284 283 283 281 280 279 279 278 278 278 277 278 279 279 280 277 278 277 278 278 278 278 279 279 279 280 277 275 274 277 278 276 276 278 279 279 279 280 281 282 282 282 282
283 283 283 284 284 284 285 285 285 286 286 287 288 289 289 289 289 289 286 285 285 285 284 283 283 283 283 282 282 281 282 282 282 282 282 282 282 282 281 281 280 281 283 283 282 281 280 279 280 278 279 279 278 279 280 281 279 277 277 277 278 277 277 278 279 279 280 279 276 275 273 275 277 276 276 277 279 279 279 280 280 281 281 281 282
282 282 283 283 283 284 284 285 285 285 285 287 287 288 288 289 289 289 286 285 285 284 284 283 282 283 283 282 282 281 281 281 282 282 281 281 281 280 280 279 279 280 281 281 281 280 279 279 279 279 280 280 280 281 280 280 279 279 280 279 279 278 279 279 277 277 277 278 276 274 270 275 277 276 276 277 278 278 279 279 280 281 281 281 281
282 283 283 283 283 283 284 284 284 284 285 286 287 287 288 288 289 287 286 286 285 285 284 284 283 283 282 282 282 282 281 281 282 283 282 281 280 279 278 278 278 279 280 281 282 281 280 279 279 280 280 280 281 280 280 279 280 280 280 279 278 277 275 273 272 274 273 276 276 273 271 272 276 274 275 277 277 276 277 277 279 280 280 280 280
279 280 281 281 282 283 283 283 283 284 284 286 286 286 287 288 287 287 286 286 285 285 285 285 284 283 282 282 282 282 281 281 282 284 284 282 279 279 278 277 277 277 278 279 281 282 281 280 281 281 282 282 282 282 282 281 280 280 277 274 272 274 272 271 271 272 272 275 275 275 272 271 274 274 274 275 275 275 275 276 277 278 279 279 280
277 279 280 281 281 282 282 282 283 283 283 285 285 286 286 287 287 286 286 286 285 285 285 285 284 283 282 282 282 281 281 281 283 284 284 282 279 278 278 276 275 275 276 278 279 280 281 281 281 281 282 282 282 282 281 281 281 280 275 273 274 274 271 272 270 272 273 274 274 275 271 271 274 274 272 273 274 274 275 276 277 277 278 278 278
275 277 278 280 281 282 282 282 282 283 283 283 285 285 286 286 286 285 285 285 285 285 285 284 284 283 281 282 282 282 281 281 283 284 285 282 279 279 278 276 275 275 276 277 277 277 278 278 279 280 280 281 280 279 280 282 281 279 277 276 276 273 271 272 271 271 270 271 274 275 270 271 272 273 272 269 270 274 275 276 276 276 275 275 276
Wind_Speed
10 10 9 10 9 8 7 8 7 6 6 6 6 6 5 5 5 5 5 5 4 4 3 3 2 2 2 3 2 2 2 2 2 1 1 1 1 4 8 7 5 4 3 2 3 4 5 5 5 6 7 7 8 8 7 7 8 11 10 8 8 9 9 9 9 9 8 9 11 11 11 11 10 9 9 10 11 12 13 13 13 14 14 14 14
11 10 10 10 9 8 8 8 7 6 7 6 6 6 6 5 5 5 5 5 4 4 3 3 3 2 2 2 2 2 2 1 2 1 1 1 2 4 6 8 6 5 5 3 3 3 4 5 4 5 6 7 7 7 6 7 10 9 9 9 8 8 8 8 8 9 9 9 10 10 10 10 10 9 9 10 10 11 12 13 13 13 13 13 13
10 11 10 9 9 9 9 8 8 7 7 6 6 6 5 5 6 6 5 5 4 4 3 4 3 2 2 2 2 2 2 2 2 2 2 2 2 3 4 6 10 9 5 6 6 5 4 4 4 4 5 5 5 6 5 6 8 7 8 8 8 8 8 8 9 10 10 10 10 10 10 10 10 9 10 11 11 11 12 12 12 12 12 13 13
11 10 11 10 10 10 9 9 9 8 7 6 6 5 5 4 5 5 5 5 5 4 3 4 4 3 3 3 2 2 2 2 2 2 2 2 3 3 3 4 9 13 14 8 8 6 6 7 5 5 6 5 5 6 6 7 7 6 5 7 7 8 8 8 9 9 9 10 10 10 10 10 9 10 10 11 11 12 12 12 12 12 12 12 13
10 11 10 10 10 10 9 9 8 8 8 8 7 6 5 5 5 5 5 5 5 5 3 3 4 3 3 3 3 2 2 3 3 3 3 3 3 3 4 4 5 9 13 15 13 8 9 9 8 6 7 6 6 6 7 6 6 6 6 7 6 7 7 7 8 9 9 9 10 10 10 10 10 10 10 10 11 11 11 12 12 12 12 13 13
10 10 10 9 9 9 9 9 8 9 7 7 7 7 6 7 7 6 6 6 6 6 5 5 4 4 3 3 3 3 3 3 3 3 3 3 3 3 3 3 3 4 5 11 14 15 11 10 10 9 7 6 8 7 6 6 5 6 7 6 6 7 7 7 8 9 9 10 10 10 10 10 10 10 10 10 11 12 12 12 12 12 12 13 13
10 10 10 9 9 9 9 9 8 8 8 8 8 7 7 8 7 7 6 6 6 5 5 5 5 4 4 3 3 3 3 3 3 3 3 3 3 3 3 3 3 3 3 4 7 13 13 13 12 10 9 8 7 6 5 5 5 6 7 7 8 8 8 7 9 9 10 10 10 10 10 9 9 10 9 10 11 11 11 12 12 12 12 12 12
10 10 10 9 9 10 9 8 9 8 8 8 8 8 8 7 7 7 8 6 6 6 4 4 4 4 3 3 3 3 3 3 3 3 3 3 3 3 3 3 3 3 2 3 4 7 11 12 13 13 11 9 8 7 5 4 5 6 6 7 7 7 7 8 9 9 10 10 10 10 9 9 9 9 10 10 11 11 12 11 12 12 12 12 12
11 11 10 10 9 8 8 8 9 8 8 8 8 8 8 7 6 6 6 7 7 7 5 4 4 4 3 3 3 3 3 3 4 3 3 4 4 4 4 4 4 2 2 3 3 4 7 10 11 14 14 10 9 9 5 4 5 6 6 6 7 8 8 10 9 9 9 9 9 9 10 9 9 9 9 10 11 11 11 11 11 12 12 12 12
12 11 10 9 9 9 8 9 9 8 8 8 8 7 7 7 8 6 6 7 7 7 6 5 4 4 3 3 3 2 3 3 3 3 3 3 3 4 3 3 3 3 3 3 3 2 3 5 7 11 14 12 11 10 8 6 4 5 6 6 7 8 10 10 10 10 9 9 9 9 9 9 9 9 10 10 11 11 11 11 12 12 13 13 13
13 12 11 10 10 9 8 10 9 9 8 9 7 7 7 7 8 8 5 5 6 7 6 6 5 4 4 4 2 2 2 3 3 2 3 3 3 3 2 3 3 3 3 2 2 3 3 2 2 3 6 12 11 12 11 8 5 5 6 7 7 9 9 9 9 10 9 9 9 9 10 10 10 10 10 10 10 10 11 11 11 11 11 11 12
13 13 12 11 11 10 10 10 10 9 9 10 9 9 10 10 9 10 9 4 2 5 7 8 7 6 5 4 3 3 3 3 2 3 3 3 3 2 3 2 2 3 3 2 3 3 2 2 3 3 4 8 10 11 14 16 8 5 5 5 7 7 8 9 9 10 10 9 9 9 9 9 9 9 10 11 11 10 10 10 10 10 10 10 10
13 13 13 12 11 10 10 10 10 10 9 10 10 10 9 9 9 8 10 9 6 6 7 8 9 6 4 4 3 3 3 2 3 3 3 3 2 3 2 2 3 3 2 2 3 2 2 2 3 3 3 4 6 10 13 17 20 17 16 7 8 8 8 9 8 9 10 9 9 9 9 10 10 11 11 11 11 11 11 11 11 11 11 11 11
11 12 12 12 12 10 10 10 10 10 10 8 8 8 10 9 9 8 7 9 8 9 9 10 6 7 8 5 3 3 2 2 2 3 3 2 2 3 3 3 3 3 2 3 2 2 2 2 3 3 3 3 3 4 5 8 12 17 17 16 10 8 8 8 8 9 9 9 9 9 10 11 11 12 12 12 13 13 13 13 13 13 12 13 13
11 11 11 11 10 10 11 10 11 10 10 9 9 10 10 12 13 11 10 7 6 7 10 10 7 7 7 7 5 5 4 4 3 3 4 3 3 3 3 3 3 2 2 2 2 2 2 3 3 3 3 3 4 5 7 8 10 16 17 16 13 11 9 8 8 9 9 9 9 9 10 11 11 12 12 12 12 12 12 12 12 12 12 12 12
12 12 10 11 12 11 10 11 12 11 11 11 11 12 11 11 11 11 11 10 8 9 9 7 4 11 7 5 6 5 4 8 8 6 5 4 4 4 3 2 2 1 1 2 2 2 3 3 3 3 3 3 4 4 5 5 6 9 12 14 13 12 9 8 8 8 9 9 9 10 10 11 11 12 12 11 11 11 11 11 11 11 11 11 11
10 12 11 12 12 11 11 11 12 12 11 11 11 12 12 11 13 11 13 12 11 9 9 8 8 4 3 6 3 3 6 4 10 5 6 5 5 4 3 3 2 2 2 2 2 2 3 3 3 3 3 4 4 4 4 4 5 6 7 10 11 11 11 9 9 9 9 9 10 10 10 11 11 11 12 11 11 11 12 12 12 11 12 12 12
9 10 12 11 12 12 12 12 12 11 11 11 10 9 11 12 13 12 13 11 11 11 10 8 7 6 5 4 2 1 4 7 8 5 7 6 5 5 5 4 2 2 2 2 2 3 3 3 3 3 3 3 4 4 4 5 5 6 6 7 11 11 11 10 10 9 9 10 10 10 10 11 11 12 12 12 12 12 12 12 12 12 13 13 13
11 11 12 11 11 11 12 12 12 12 11 11 11 12 11 11 11 11 12 11 10 11 13 11 6 6 5 4 2 2 1 10 7 6 5 6 6 6 6 5 4 3 3 3 3 4 3 3 4 4 3 3 4 4 4 5 6 7 10 10 11 10 10 10 10 10 10 10 10 10 10 10 11 12 12 12 12 12 12 11 12 12 12 12 11
10 11 11 12 11 11 11 11 11 12 11 12 12 11 10 9 11 12 10 11 11 11 11 11 13 9 8 6 4 1 3 4 3 6 4 7 7 5 4 5 5 4 4 4 4 4 5 4 4 4 4 4 3 3 4 4 4 5 6 11 11 11 11 11 10 10 10 10 11 10 10 10 11 11 12 12 11 11 11 11 12 12 12 12 12
10 10 11 12 11 11 11 11 11 11 9 10 10 11 14 14 13 12 12 11 10 10 10 11 12 9 9 6 4 4 3 2 2 2 4 6 6 8 7 5 4 5 5 4 4 4 4 5 4 4 4 4 3 3 3 3 3 5 7 10 11 11 11 11 10 10 10 11 11 10 10 11 11 11 12 11 11 11 11 11 11 11 12 12 12
10 11 11 12 12 12 11 13 12 10 9 11 10 11 12 12 13 14 13 13 11 10 10 10 11 8 11 8 8 6 4 4 4 4 0 2 3 7 8 10 9 7 6 6 6 5 5 5 5 4 4 4 3 3 3 3 4 4 6 10 10 11 11 10 10 9 9 10 10 11 10 10 11 11 11 11 11 11 10 10 11 11 12 12 13
8 9 11 12 12 12 11 12 12 10 10 12 12 12 12 11 11 13 13 15 12 11 9 8 11 8 11 9 11 11 11 9 9 7 7 6 4 5 6 8 7 8 7 6 6 5 6 5 6 6 5 4 4 3 3 4 5 5 6 9 10 10 10 10 9 9 8 9 10 10 10 11 11 11 11 11 11 11 11 11 11 12 12 13 13
8 9 11 12 11 11 11 11 11 11 12 11 11 11 11 11 11 11 12 13 11 11 11 11 12 9 11 10 10 10 10 8 8 9 9 7 8 6 7 5 2 4 5 6 4 5 6 6 6 6 5 5 4 3 4 3 5 7 3 7 9 9 9 9 9 9 8 9 9 9 10 10 11 11 11 11 11 11 11 11 11 12 12 13 14
9 10 10 13 11 11 12 12 12 11 10 10 10 11 10 11 11 12 12 13 13 13 11 12 12 11 11 9 9 9 9 6 6 8 7 5 7 5 4 6 6 6 5 6 6 6 6 7 6 6 5 5 5 4 3 2 3 6 5 3 6 8 9 9 8 8 8 8 9 9 9 9 10 10 10 10 9 10 10 10 11 11 11 11 12
10 11 10 10 10 12 12 12 12 11 11 11 11 10 10 11 11 12 13 12 10 11 10 9 9 9 7 8 9 7 7 4 6 6 7 7 7 8 7 3 1 6 4 5 5 5 6 7 6 6 5 5 5 5 4 3 3 6 4 3 2 4 7 7 7 7 7 7 7 7 7 8 8 8 8 8 8 9 10 10 11 11 11 12 12
9 8 9 10 12 11 11 12 12 11 11 11 9 10 10 10 9 10 9 9 10 10 10 10 9 10 10 9 8 7 6 5 5 7 7 8 8 9 9 8 4 3 5 5 5 9 5 7 7 6 6 6 6 5 5 4 5 6 1 2 2 1 4 6 6 7 7 6 6 6 6 6 6 6 6 7 8 8 9 10 11 11 11 11 12
7 8 8 9 10 12 12 12 12 11 11 11 11 10 10 10 9 8 10 5 8 12 11 10 10 11 11 8 7 9 6 6 6 6 7 7 7 7 9 9 9 6 6 6 6 8 8 7 5 7 7 6 6 5 5 5 4 6 5 2 2 2 3 6 7 8 7 6 6 5 6 5 5 6 6 6 7 8 9 9 10 10 11 11 11
7 6 7 8 9 11 11 12 12 12 12 11 11 11 10 11 10 10 12 9 11 12 11 11 11 11 10 11 10 8 8 7 6 6 6 6 6 7 9 10 10 8 7 9 9 8 9 10 8 8 9 7 6 6 6 6 5 3 1 2 3 3 3 6 8 8 8 7 6 6 6 6 5 5 6 7 7 8 8 8 9 10 10 10 11
7 5 6 8 9 11 10 11 11 12 12 11 11 12 10 11 12 11 11 11 12 10 11 12 11 11 10 9 10 9 7 8 8 7 7 8 7 7 8 8 8 10 9 9 8 9 7 10 7 7 9 9 7 6 6 6 8 3 2 3 4 4 4 8 10 10 8 8 7 6 6 6 5 6 6 7 7 7 8 8 8 9 9 10 10
6 7 7 8 9 9 10 11 11 12 12 12 12 12 13 12 12 11 11 11 11 12 12 11 10 10 11 12 10 10 8 9 8 7 7 7 8 7 7 6 6 8 8 8 7 5 7 9 9 7 10 10 8 7 5 5 6 5 4 5 5 4 6 8 11 10 10 8 7 6 6 6 6 6 7 7 8 7 8 8 9 9 9 10 11
6 7 7 8 9 10 10 11 12 11 12 12 12 12 12 13 12 12 12 12 13 13 12 10 8 9 11 13 12 11 8 8 9 8 8 7 7 7 7 7 7 6 5 6 9 6 5 6 8 8 10 10 9 8 7 6 5 8 5 5 5 5 6 6 8 10 9 8 7 7 6 6 6 7 7 8 8 8 9 9 10 10 10 10 11
8 8 9 9 9 10 11 11 12 12 13 13 11 11 12 14 14 14 13 13 15 13 12 12 11 11 13 13 13 12 9 10 9 8 8 9 8 7 6 6 6 6 7 7 8 6 3 2 6 7 9 10 8 9 9 8 7 6 6 5 5 5 5 5 4 8 9 8 8 7 7 7 7 7 8 8 9 9 10 10 10 10 11 11 11
8 9 10 9 9 10 11 11 12 12 12 12 12 12 13 14 14 10 12 13 14 14 13 12 13 10 11 12 12 11 10 11 9 10 10 10 9 9 8 8 8 8 7 7 8 7 8 6 5 6 7 9 8 10 10 8 7 6 6 5 5 5 5 4 5 5 7 8 8 8 7 7 7 7 8 8 9 10 10 11 11 11 11 11 11
9 9 9 10 10 10 11 11 12 12 12 12 12 12 13 14 15 13 11 13 14 14 14 14 13 10 11 12 13 10 6 9 10 10 9 10 9 10 10 8 9 8 8 8 8 8 9 8 7 8 8 8 8 9 8 6 5 5 6 7 6 5 5 5 5 5 7 8 8 7 6 6 6 7 8 9 10 10 11 12 12 12 12 12 12
11 9 9 10 10 10 10 11 11 11 12 12 12 12 13 14 14 14 13 13 12 13 15 15 14 12 14 12 10 9 8 9 10 9 8 8 9 8 8 8 8 8 8 8 7 7 8 9 8 9 8 8 7 6 7 6 7 7 7 6 6 6 6 6 7 6 6 8 8 7 7 6 7 8 8 9 10 11 13 13 13 13 13 12 12
11 11 8 8 10 11 11 11 11 11 11 11 12 11 11 11 13 14 13 14 15 15 16 15 16 13 12 13 11 14 16 12 8 9 8 11 7 6 7 7 7 6 6 7 7 6 8 9 8 7 7 7 6 7 8 8 7 7 7 7 7 7 7 7 6 6 8 10 9 8 6 7 7 7 8 10 12 13 14 14 13 13 12 12 11
9 9 10 9 8 11 11 12 12 13 12 11 10 8 8 8 10 12 11 11 12 13 14 14 15 14 14 15 12 14 14 14 13 10 13 15 10 8 9 8 8 7 8 8 7 7 7 8 9 9 8 9 8 8 9 8 8 8 8 7 7 7 7 7 8 6 6 5 4 5 6 6 6 5 9 11 13 14 13 13 12 12 11 11 12
9 10 9 9 8 9 11 10 12 13 13 13 12 12 12 11 12 13 13 12 11 10 13 13 13 13 15 14 13 15 16 15 13 19 17 16 8 9 9 8 8 9 9 8 9 9 8 9 8 8 9 8 8 8 9 8 7 7 8 8 9 9 8 8 7 6 5 5 6 6 5 4 5 6 9 11 12 12 12 11 12 12 11 12 13
9 10 11 11 9 9 9 10 11 11 12 11 11 11 12 11 12 14 14 11 12 11 12 11 11 12 13 14 14 15 16 13 12 18 18 14 7 7 6 6 8 9 8 8 9 9 9 9 9 10 9 9 8 6 8 8 7 7 8 7 8 9 8 7 7 6 5 3 3 3 5 5 6 7 9 8 8 8 10 10 10 10 12 13 13
8 10 11 11 12 11 10 12 11 9 10 11 9 9 10 12 11 11 12 11 14 14 14 13 12 12 12 13 14 15 17 22 25 23 22 22 15 11 7 9 8 4 5 6 7 8 7 7 7 8 8 9 9 10 10 10 11 10 9 8 6 5 5 5 6 5 5 4 3 3 4 3 4 4 4 4 4 7 8 10 9 12 12 12 13
11 10 10 10 10 12 13 12 10 12 12 11 13 18 16 11 12 13 14 11 14 15 13 13 13 13 14 14 13 22 21 23 23 23 15 14 15 15 14 16 15 11 9 7 8 8 8 8 8 10 9 10 11 12 11 10 8 7 8 8 7 6 5 5 4 4 5 4 4 4 3 1 3 5 4 4 4 5 5 6 6 8 12 16 16
12 11 11 11 10 10 12 12 12 10 10 12 16 16 19 22 16 13 12 12 15 14 15 15 14 13 13 13 11 17 20 21 20 20 19 19 19 16 10 8 12 21 19 11 8 9 8 6 7 8 8 10 11 10 10 10 9 9 8 7 6 5 5 4 3 4 4 4 1 2 2 2 3 6 5 5 5 5 7 7 11 14 16 17 17
10 10 11 10 11 11 10 11 12 12 10 13 17 16 19 22 21 16 13 13 13 13 13 15 14 13 14 13 11 9 11 15 15 16 19 20 20 20 15 13 15 17 22 23 20 10 6 7 7 8 9 10 10 11 11 11 11 9 8 8 7 7 5 3 3 2 4 4 1 2 6 3 2 5 7 6 5 6 8 11 14 16 17 17 16
10 10 11 11 11 10 10 11 12 13 12 14 16 18 18 20 23 22 14 14 14 14 12 13 14 14 12 11 10 9 11 23 17 14 15 14 19 20 18 16 18 21 21 18 11 5 10 18 16 12 12 10 11 11 12 12 11 10 9 8 8 7 5 4 3 3 4 5 2 2 6 5 3 5 7 7 6 7 8 12 16 18 18 17 16
9 11 10 11 11 12 11 11 12 12 13 13 15 18 18 20 22 20 15 15 15 15 12 12 12 14 13 12 10 11 11 14 14 16 15 13 14 14 13 11 11 15 19 19 19 12 5 9 12 13 8 7 7 9 11 12 12 10 10 8 8 7 6 5 2 2 2 3 1 2 5 7 5 6 8 7 6 7 8 11 16 17 17 17 17
10 10 10 11 11 11 11 11 10 12 11 16 16 18 19 21 23 21 15 15 15 15 11 10 12 16 12 10 11 12 11 14 13 17 15 14 14 12 10 12 10 12 14 15 14 11 8 7 5 5 7 8 7 9 10 10 9 7 6 7 7 6 5 3 0 2 3 3 3 4 6 4 4 6 7 6 6 7 8 12 17 18 18 17 17
10 10 10 9 11 13 12 12 11 13 11 16 18 18 20 21 23 15 14 15 15 15 15 13 12 11 11 11 11 11 11 12 16 23 18 12 13 18 12 10 10 11 12 13 14 12 10 8 7 7 6 7 8 9 10 9 9 7 6 4 3 4 5 5 4 4 5 4 7 7 6 6 6 6 7 5 6 8 9 10 13 17 17 17 17
12 12 11 11 10 10 12 11 12 13 12 14 17 20 20 22 19 13 14 11 12 14 13 13 12 13 12 13 12 11 12 14 19 26 23 19 18 19 13 9 9 10 10 10 16 16 13 12 11 10 10 12 12 14 15 15 10 8 8 7 6 7 8 6 5 5 5 5 6 7 5 7 6 6 6 5 8 9 9 9 9 12 16 16 16
13 13 12 12 13 11 12 13 11 12 13 14 18 19 20 22 19 14 13 13 13 11 13 12 10 11 13 21 17 13 13 14 20 27 28 21 18 20 17 12 11 12 10 10 10 11 16 15 14 13 13 13 14 14 15 15 15 12 10 9 10 9 8 6 5 4 3 3 5 6 5 6 5 5 5 6 8 8 9 8 8 8 11 13 18
14 14 13 13 13 11 11 12 15 15 14 15 17 20 21 21 18 13 13 14 16 14 14 11 10 10 10 15 22 17 13 14 23 27 29 22 15 18 16 12 14 14 13 14 13 13 12 11 11 11 11 13 12 11 11 17 17 15 8 7 8 9 8 7 5 3 2 5 6 9 5 6 5 5 3 3 4 5 5 5 7 6 7 8 9
Wind_Direction
188 188 185 187 184 177 175 178 177 175 177 179 176 175 175 165 158 155 150 144 141 133 124 115 119 106 109 116 122 110 118 127 117 114 128 131 106 51 354 4 10 19 34 108 143 144 142 133 129 129 126 125 119 107 108 107 103 92 84 83 81 80 74 67 65 65 63 60 65 62 56 51 50 49 53 55 56 52 52 50 49 48 47 45 44
187 187 185 186 181 174 178 179 178 175 180 184 180 180 174 168 161 154 148 143 142 130 136 122 108 108 115 126 124 131 127 129 131 140 132 110 100 102 22 359 9 42 37 75 84 116 126 125 130 125 129 136 134 112 113 114 103 96 89 87 83 76 76 69 67 65 62 63 60 58 57 54 49 47 51 53 53 49 47 46 45 45 44 42 41
187 184 184 183 179 177 184 177 180 178 183 184 177 183 173 172 167 158 152 148 140 138 147 136 132 128 127 150 146 146 139 135 136 131 130 114 108 101 82 27 11 10 57 68 80 88 98 131 126 117 120 134 138 123 122 111 107 103 100 87 78 82 76 72 71 69 68 65 60 57 55 55 50 47 49 50 48 45 43 43 42 40 40 38 36
186 182 185 182 182 183 184 180 185 177 183 180 174 176 170 151 142 135 137 142 138 145 146 150 149 147 152 156 166 159 151 145 143 136 113 109 121 119 112 87 46 29 24 56 74 80 83 65 66 88 100 107 126 132 118 108 104 97 92 85 86 85 79 69 72 72 71 67 63 58 55 54 52 49 49 48 45 43 40 38 37 37 37 36 35
186 182 183 184 182 180 183 184 183 177 177 171 164 163 153 148 138 138 139 140 143 140 139 151 148 150 164 161 160 153 146 151 140 136 130 131 122 120 118 110 96 56 39 29 31 56 62 56 53 83 97 96 101 98 95 96 106 113 96 89 87 84 77 75 73 74 72 71 66 61 56 55 53 49 45 44 43 42 40 37 35 33 33 33 32
186 183 184 185 183 183 182 183 183 172 167 162 170 171 166 158 153 156 155 160 156 154 162 163 154 154 159 162 164 153 150 148 139 132 143 136 134 125 126 127 114 103 73 49 32 27 39 50 55 61 80 80 74 77 96 103 112 109 98 98 93 84 77 72 77 75 72 69 66 61 57 55 54 47 42 40 39 38 37 35 33 31 30 29 27
186 179 184 188 184 186 186 185 175 167 169 173 174 173 168 164 162 162 158 162 160 160 171 163 157 156 155 161 150 146 147 133 130 131 136 133 133 124 121 117 118 116 114 112 63 31 27 35 42 46 51 53 56 67 85 106 108 100 104 102 91 82 78 79 74 73 70 65 64 62 57 55 53 46 42 38 36 35 31 31 28 26 26 25 24
182 181 184 190 188 189 186 177 162 168 175 174 178 174 169 163 169 163 157 161 162 165 173 157 149 140 144 142 137 150 138 135 133 137 133 143 126 118 109 94 94 84 89 104 96 61 36 39 38 37 43 45 43 46 77 96 99 99 99 90 88 86 86 79 74 74 70 68 65 61 58 56 53 48 41 37 34 31 28 26 25 24 24 23 21
185 186 189 188 190 187 182 167 166 175 177 177 182 177 165 159 160 167 164 157 167 166 166 153 133 124 121 120 128 143 138 137 146 135 138 129 122 113 101 88 79 79 82 73 94 101 59 48 49 38 27 44 42 41 56 82 96 93 94 94 88 87 82 75 72 67 65 65 63 60 56 51 48 45 40 36 31 29 26 23 23 22 22 21 19
186 185 193 188 189 187 175 165 171 179 176 177 185 172 167 167 158 161 158 159 170 170 164 138 122 123 115 116 129 134 123 132 129 143 138 124 118 111 107 105 91 71 68 67 68 72 96 72 64 58 36 37 48 44 47 51 90 105 105 100 92 84 75 67 63 59 57 58 54 51 49 46 41 39 36 31 28 25 22 19 17 16 16 14 12
183 184 191 187 188 186 172 171 177 180 175 178 174 167 166 172 159 152 150 163 170 170 153 130 118 109 109 107 102 103 112 114 139 140 123 108 98 90 91 100 92 79 76 74 67 68 56 68 78 82 58 41 50 47 48 49 53 104 105 104 93 80 68 61 59 53 45 48 43 40 37 34 33 26 24 23 20 16 14 11 10 9 6 4 4
183 184 190 187 189 187 176 170 180 179 178 181 175 178 173 164 162 154 155 141 149 144 135 132 115 104 102 97 91 91 100 117 120 121 126 127 130 137 119 109 105 88 75 73 74 64 65 61 75 81 89 67 56 49 42 26 21 99 107 89 79 68 61 54 52 46 39 34 32 29 26 26 24 23 25 23 20 17 16 14 12 10 7 6 3
186 184 191 188 190 181 171 173 180 183 185 189 181 174 170 165 154 156 158 161 167 160 152 139 131 117 110 119 111 95 95 114 139 142 148 149 144 136 124 122 111 106 89 77 78 71 78 73 73 77 84 105 89 63 53 43 35 40 27 53 58 56 53 43 43 44 37 32 29 30 27 23 22 24 21 19 15 13 10 10 8 7 5 2 360
187 189 191 189 188 178 174 173 179 186 189 185 174 160 158 160 153 154 175 172 169 173 163 155 167 163 155 151 145 144 137 157 165 156 167 153 142 125 125 117 110 113 122 112 99 103 92 95 87 87 88 93 87 77 66 57 46 44 43 36 41 40 38 35 35 34 32 27 24 28 25 22 22 19 18 12 8 5 3 2 2 0 359 358 357
186 188 193 192 187 177 179 176 182 180 180 180 175 173 176 170 171 167 164 181 170 179 180 195 176 164 151 138 169 167 173 209 195 185 174 164 147 130 118 114 104 105 119 125 131 119 103 97 102 98 102 99 99 97 88 72 65 51 41 34 35 38 34 34 31 31 28 27 24 25 26 25 19 16 12 6 2 359 357 355 355 354 352 353 351
191 190 191 190 187 183 178 180 185 184 185 181 182 184 178 176 178 177 165 161 177 187 203 209 209 148 167 218 162 194 176 210 190 182 174 169 180 157 151 145 138 152 138 115 119 121 121 111 108 114 106 104 107 100 89 83 102 85 56 34 31 31 34 35 34 33 25 28 25 24 23 21 17 13 9 3 0 356 352 352 350 350 348 348 349
196 195 197 194 191 187 184 184 183 186 188 185 185 187 182 181 178 174 180 174 174 180 199 205 229 255 187 138 132 216 237 135 164 173 176 186 194 185 164 177 169 163 141 115 120 128 127 126 117 114 120 116 108 106 100 92 70 42 53 36 31 33 37 35 34 30 27 25 22 19 22 18 14 11 8 3 359 355 354 354 350 347 348 347 346
208 203 203 200 199 194 188 183 184 184 191 191 183 177 183 182 183 182 183 190 173 170 185 205 226 236 267 321 346 228 172 142 163 187 172 204 183 193 190 190 191 177 165 145 154 146 136 136 134 131 135 134 121 112 108 83 69 55 37 31 31 32 33 33 31 31 29 27 24 20 18 16 14 10 5 1 0 357 354 356 352 350 352 350 349
205 203 205 205 204 201 196 191 188 188 188 188 185 185 183 184 180 188 188 185 178 181 182 186 197 250 233 240 277 223 255 143 197 131 178 189 207 196 205 204 205 199 178 166 160 163 151 152 152 151 148 152 138 129 116 105 88 84 48 30 30 28 28 28 25 25 27 24 21 18 15 13 12 8 3 1 359 354 355 352 351 350 348 345 344
209 204 205 205 206 205 202 198 195 194 188 194 189 182 178 181 186 190 185 192 187 188 183 179 184 199 192 210 231 230 250 297 235 201 191 167 187 192 204 188 208 213 193 172 171 168 163 165 163 167 164 157 155 139 121 102 86 63 43 27 25 21 20 22 19 16 18 19 17 12 9 7 6 4 0 356 354 352 352 351 349 347 345 344 344
209 206 204 206 205 207 203 203 201 198 191 198 195 184 182 179 182 188 189 191 192 199 189 185 193 187 162 200 195 194 189 241 277 281 224 201 172 182 187 176 212 214 190 176 171 169 175 170 166 176 169 160 158 145 125 108 92 69 42 27 21 16 14 14 13 10 10 11 9 4 2 1 359 357 354 352 353 350 349 350 347 345 345 347 349
207 209 206 208 208 206 205 205 204 200 193 201 194 185 187 188 187 189 189 187 191 198 200 187 193 189 181 168 180 170 187 197 203 195 322 274 222 187 177 173 190 197 181 181 173 176 177 171 171 183 178 171 160 151 122 97 78 59 40 27 21 13 10 9 8 4 3 5 1 355 356 356 354 351 350 347 349 347 345 345 346 346 348 350 351
207 210 210 209 211 209 209 206 206 202 195 201 198 194 193 189 190 193 193 192 191 191 198 194 189 184 182 184 187 181 184 188 187 188 194 184 190 168 168 186 189 165 187 170 169 179 178 176 179 181 182 172 165 154 142 108 97 75 56 29 20 9 7 4 4 358 357 358 354 350 350 351 349 347 344 344 345 345 342 346 347 348 349 350 350
211 212 210 207 208 209 209 210 209 207 204 205 203 196 194 191 192 196 200 201 197 189 196 193 191 188 188 193 196 194 200 193 187 181 186 198 194 186 166 152 154 160 144 165 178 184 184 184 185 182 182 170 170 153 137 137 98 67 14 47 15 9 1 359 358 354 350 352 349 346 346 346 344 342 340 339 341 342 341 345 346 347 347 348 348
213 215 214 205 204 204 203 206 210 212 209 207 208 199 194 194 195 197 202 200 201 197 197 199 190 191 192 196 200 200 204 196 178 179 188 190 194 163 138 164 186 164 159 176 183 187 192 191 182 186 179 176 156 167 153 147 96 67 20 35 22 3 357 352 351 346 343 344 344 342 340 339 337 336 333 332 335 338 339 341 341 340 341 344 344
215 214 211 204 205 210 210 210 210 209 204 206 207 201 198 199 199 200 203 204 203 199 204 200 196 201 190 192 205 203 209 180 189 178 174 171 190 183 148 155 164 159 141 185 179 177 195 198 185 182 180 171 166 163 170 140 130 93 48 323 17 356 346 342 336 328 333 336 333 330 329 325 323 325 324 326 329 332 333 335 336 339 342 341 343
222 219 205 199 203 207 211 211 210 211 206 204 204 202 203 206 208 207 208 205 204 200 209 200 200 197 202 202 197 203 205 183 190 192 176 183 184 175 154 157 177 173 174 189 185 219 190 181 181 184 180 172 170 168 169 164 110 107 299 266 296 265 313 323 316 311 320 322 318 314 311 306 310 313 318 318 322 327 332 336 339 342 343 343 344
234 219 209 201 203 205 207 209 209 209 207 207 206 206 203 208 213 210 211 197 204 204 211 205 208 202 204 200 200 210 197 191 200 193 184 184 185 172 174 173 167 184 188 191 200 219 197 173 179 190 180 177 169 168 135 140 155 138 200 256 283 280 286 301 302 304 308 308 301 301 293 293 300 302 309 317 324 329 333 338 340 341 341 342 339
240 221 215 209 210 209 211 211 209 209 207 205 203 204 202 207 212 208 211 204 210 212 212 210 210 200 205 197 205 204 197 189 199 198 185 182 187 182 187 190 193 186 178 202 204 193 188 191 179 188 184 179 171 165 164 200 140 151 248 271 274 272 281 289 289 294 296 290 294 289 284 286 290 299 309 320 324 324 328 335 340 339 337 335 332
236 222 217 216 213 210 215 213 209 206 206 203 201 201 199 209 214 215 213 202 203 210 212 212 206 199 200 196 204 208 188 189 199 192 187 187 183 187 193 200 200 205 188 193 203 188 170 187 193 169 178 180 175 171 171 191 130 171 213 253 252 253 270 280 281 280 277 278 278 275 274 282 288 297 311 316 314 316 323 330 332 332 330 326 323
240 232 220 221 216 213 214 219 214 211 207 205 200 200 198 207 210 215 212 207 206 211 212 208 209 195 197 201 201 211 187 194 193 190 190 184 187 187 195 193 198 210 209 198 204 167 165 175 189 172 167 174 172 167 166 186 159 182 214 233 233 229 259 264 260 260 261 262 264 262 265 273 283 297 303 302 305 311 313 320 324 325 323 318 318
242 230 224 220 217 215 213 215 218 215 211 209 203 203 201 208 207 209 210 203 211 214 212 206 205 202 202 204 201 206 186 188 196 192 190 190 186 188 188 190 198 200 206 203 220 166 169 171 168 158 163 167 170 173 179 189 156 177 226 227 227 231 246 239 232 246 256 260 267 268 270 274 284 290 294 302 307 312 315 316 317 315 316 318 323
253 241 232 225 221 219 217 214 216 214 212 211 207 205 208 211 211 209 205 200 207 214 213 208 205 204 210 208 206 205 180 191 197 189 191 186 185 189 185 184 190 188 187 200 205 145 129 114 149 158 158 160 173 184 186 187 188 192 204 226 228 233 240 249 241 229 245 260 267 272 270 272 281 294 302 310 315 313 310 306 307 311 315 320 325
260 249 244 237 228 224 222 220 216 216 214 211 209 208 213 215 215 210 203 194 202 209 210 210 202 202 206 208 209 201 190 199 194 191 188 183 184 184 187 186 189 183 189 188 204 164 162 157 156 145 156 172 175 183 190 190 191 192 206 214 223 227 235 242 244 229 222 247 258 261 267 275 288 297 305 310 306 301 300 304 307 312 317 324 331
272 256 251 245 239 231 229 227 222 219 215 211 210 209 212 214 214 212 207 203 201 201 206 208 202 198 203 212 212 193 174 199 206 199 186 185 184 187 184 183 185 181 178 191 189 180 164 172 166 161 170 178 191 176 185 192 189 194 209 219 221 223 225 237 242 241 225 243 253 262 270 279 286 290 293 294 296 299 304 309 313 316 326 333 334
285 272 247 249 246 240 237 232 227 223 219 216 212 210 211 212 215 217 211 208 207 206 207 206 199 192 201 207 210 180 169 198 204 195 192 185 183 185 176 177 181 173 171 179 197 181 165 155 180 178 174 169 190 178 172 181 191 200 211 221 219 227 230 227 232 238 225 239 256 262 263 265 268 275 283 293 300 306 309 312 317 325 329 329 327
279 275 266 249 248 244 239 234 230 225 220 216 214 213 211 212 215 218 214 210 211 214 214 206 200 189 193 202 195 168 181 195 198 197 185 185 181 169 177 174 175 161 148 173 182 179 168 171 159 172 165 173 178 180 179 181 191 203 207 213 217 223 228 228 227 228 231 236 240 239 241 244 254 264 283 301 307 307 309 314 320 322 319 318 317
283 270 264 256 244 248 243 239 236 233 227 221 219 210 202 205 210 218 220 211 213 214 218 220 209 200 201 205 197 181 187 197 200 189 167 180 158 185 181 175 168 155 158 169 175 179 175 172 159 158 173 169 172 190 191 192 187 187 196 206 214 223 223 222 216 208 208 207 202 202 211 231 228 278 302 307 305 305 309 313 311 310 309 307 305
298 284 265 247 240 240 244 242 238 237 235 227 224 224 223 217 217 221 224 218 211 211 221 220 213 214 212 207 198 191 199 203 195 180 177 174 183 190 182 169 160 157 165 170 173 175 177 167 164 170 168 181 181 182 188 193 202 200 191 186 203 208 211 212 205 194 201 207 212 218 236 267 284 285 292 294 295 297 298 298 301 301 302 300 297
313 308 295 276 253 242 237 236 238 239 238 233 223 223 223 219 217 221 223 220 219 218 221 218 212 212 215 216 209 201 201 200 195 174 170 182 165 184 186 164 166 165 166 163 167 174 176 176 173 172 176 174 181 177 159 177 193 210 211 205 198 186 195 197 201 191 192 201 210 193 199 217 233 258 272 280 282 286 291 296 297 297 293 289 286
318 314 310 303 292 271 245 242 242 227 232 238 232 217 214 219 214 216 216 216 220 225 224 223 216 211 212 215 218 214 208 212 210 205 203 196 169 179 179 161 174 157 154 160 171 173 174 169 173 176 175 182 182 174 175 187 197 201 186 194 212 199 200 203 189 184 189 197 204 205 203 214 263 271 294 302 296 302 297 298 292 280 275 278 288
322 317 313 304 294 287 279 263 237 238 242 243 237 232 228 225 224 232 234 230 227 229 225 221 221 214 213 215 219 219 217 214 212 211 208 202 205 195 167 163 174 155 169 168 177 180 170 174 181 173 180 190 185 184 184 192 188 172 169 189 201 193 196 211 193 184 176 181 204 215 205 210 297 291 285 288 291 291 294 295 287 288 287 290 294
322 322 321 313 304 294 283 274 265 247 234 243 240 232 230 227 229 230 229 230 231 229 227 222 221 214 214 214 217 215 214 214 212 207 204 202 206 211 216 210 182 164 159 173 183 168 177 184 170 181 188 182 182 176 181 175 176 181 187 190 194 189 199 194 176 131 163 169 211 294 293 348 330 307 305 300 299 292 281 275 276 281 284 289 295
319 320 315 309 304 298 289 280 271 264 254 245 242 235 229 227 224 228 231 231 228 230 226 223 224 219 215 209 205 192 192 200 200 200 202 203 205 207 205 203 208 211 195 178 159 172 189 175 177 197 176 185 171 172 175 172 176 177 185 187 192 193 188 201 191 160 98 115 143 309 293 317 306 285 290 281 273 267 263 267 272 276 279 283 286
313 312 307 307 301 294 290 284 279 273 266 258 248 237 232 228 224 222 231 230 229 232 225 219 220 219 208 202 198 184 198 204 200 198 194 193 201 201 203 202 207 208 213 224 264 321 158 174 175 179 190 173 166 180 175 172 165 167 176 185 188 190 196 199 194 150 137 131 123 281 286 289 254 244 257 257 249 253 259 260 263 266 270 273 277
302 305 301 301 304 302 295 287 283 279 273 271 253 245 236 229 227 221 227 228 230 231 223 214 214 217 207 196 192 191 185 188 192 193 186 183 184 189 192 197 202 209 214 215 213 230 261 218 175 183 180 166 171 164 166 161 166 172 177 182 180 181 189 195 166 158 145 113 166 289 282 269 250 242 247 253 254 257 255 259 261 263 268 270 273
300 298 297 301 301 297 296 289 285 280 275 275 267 252 245 235 230 225 229 230 231 233 226 214 215 222 215 202 198 194 182 180 187 184 179 175 172 175 172 189 192 199 203 204 205 205 203 208 223 189 162 167 158 154 155 162 164 165 167 165 170 174 171 158 171 257 254 225 208 208 243 267 233 228 245 259 264 259 260 262 259 259 262 265 265
293 290 288 286 292 293 289 288 284 279 271 270 266 259 250 245 239 231 233 231 232 233 232 224 216 214 211 207 202 195 183 188 188 186 178 162 173 188 179 171 179 191 202 205 197 192 190 189 184 183 168 160 155 149 154 155 154 149 143 118 109 116 136 181 216 221 228 227 198 207 234 250 253 254 262 267 267 265 260 257 256 255 254 254 255
292 290 286 282 281 284 286 283 276 272 275 270 265 263 257 251 245 239 236 234 231 230 226 222 215 215 208 200 200 193 186 193 186 186 182 173 189 193 188 165 171 176 190 188 193 192 181 173 169 163 152 158 155 154 156 158 155 154 141 133 160 162 182 199 217 214 226 201 193 204 234 257 247 241 255 261 264 264 263 257 254 248 244 244 253
292 284 284 284 279 272 275 279 272 273 274 272 269 263 258 253 245 243 241 239 234 226 229 219 209 210 210 213 209 202 192 196 182 189 190 181 188 195 194 178 173 186 186 176 170 185 180 177 174 170 168 168 165 162 166 167 168 157 153 176 178 181 201 203 197 194 202 194 202 198 209 239 248 243 258 271 266 253 251 251 234 234 236 249 265
289 290 285 278 278 274 272 272 275 269 269 271 264 262 257 253 247 242 244 244 244 235 228 223 205 213 206 212 209 208 194 189 184 192 193 186 188 191 192 175 185 191 186 169 167 168 170 168 175 173 178 179 178 174 179 181 173 165 173 182 187 193 198 200 192 173 220 238 191 172 198 245 225 250 232 278 253 238 216 230 211 226 257 264 267